Flag for U.S.A. Weather past 2 weeks in Lancaster, California, U.S.A.

Now
91 °F

Sunny.


Feels Like: 87 °F
Forecast: 70 / 97 °F
Wind: 5 mph from North

Location: Lancaster / Fox Field

Current Time: Sep 1, 2014 at 12:29:28 PM

Latest Report: Sep 1, 2014 at 11:56 AM


Visibility: 10 mi

Pressure: 29.80 "Hg

Humidity: 11%

Dew point: 29 °F

Location of LancasterLocation

Historic Weather in Lancaster — Graph

°F

Lancaster temperature yesterday

Maximum temperature yesterday: 96 °F (at 1:56 PM)
Minimum temperature yesterday: 74 °F (at 5:56 AM)
Average temperature yesterday: 83 °F

Past Weeks' High & Low Weather Summary

 TemperatureHumidityPressure
High101 °F (Aug 17, 1:56 PM)72% (Aug 20, 6:56 AM)30.10 "Hg (Aug 20, 6:56 AM)
Low54 °F (Aug 27, 5:56 AM)5% (Aug 31, 2:56 PM)29.74 "Hg (Aug 18, 4:56 PM)
Average79 °F28%29.87 "Hg
* Reported Aug 17 10:56 AM — Sep 1 10:56 AM, Lancaster, Weather by CustomWeather, © 2014

Note: Actual official high and low records may vary slightly from our data, if they occured in-between our weather recording intervals... More about our weather records

Advertising

Lancaster weather history for previous 24 hours

 ConditionsComfort  
Time TempWeatherWind HumidityBarometerVisibility
10:56 AM
Sep 1
89 °FSunny.No wind12%29.82 "Hg10 mi
9:56 AM85 °FSunny.3 mph15%29.83 "Hg10 mi
8:56 AM80 °FSunny.3 mph20%29.83 "Hg10 mi
7:56 AM73 °FSunny.3 mph28%29.83 "Hg10 mi
6:56 AM65 °FClear.No wind34%29.82 "Hg10 mi
5:56 AM66 °FClear.No wind32%29.80 "Hg10 mi
4:56 AM71 °FClear.8 mph27%29.78 "Hg10 mi
3:56 AM73 °FClear.12 mph23%29.77 "Hg10 mi
2:56 AM75 °FClear.14 mph21%29.77 "Hg10 mi
1:56 AM76 °FClear.14 mph18%29.78 "Hg10 mi
12:56 AM77 °FClear.17 mph16%29.78 "Hg10 mi
11:56 PM
Aug 31
77 °FClear.17 mph15%29.78 "Hg10 mi
10:56 PM77 °FClear.17 mph16%29.78 "Hg10 mi
9:56 PM78 °FClear.18 mph18%29.79 "Hg10 mi
8:56 PM79 °FClear.17 mph20%29.78 "Hg10 mi
7:56 PM81 °FSunny.20 mph18%29.77 "Hg10 mi
6:56 PM84 °FSunny.28 mph14%29.76 "Hg10 mi
5:56 PM88 °FSunny.29 mph9%29.75 "Hg10 mi
4:56 PM91 °FSunny.31 mph6%29.74 "Hg10 mi
3:56 PM93 °FSunny.30 mph6%29.75 "Hg10 mi
2:56 PM96 °FSunny.28 mph5%29.76 "Hg10 mi
1:56 PM96 °FSunny.25 mph8%29.78 "Hg10 mi
12:56 PM95 °FSunny.22 mph10%29.79 "Hg10 mi
Weather by CustomWeather, © 2014

See weather overviewHow to use our weather pages